[[{"header":{"parameterUnit":"m.s-1","parameterCategory":1,"la1":30.2991,"la2":30.254,"lo1":-89.0895,"lo2":-89.0444,"dy":0.0017,"dx":0.0017,"nx":28,"ny":28,"refTime":"2024-06-02T03:00:00:Z","depth":0,"parameterNumber":2,"parameterNumberName":"U-component_of_WINDS"},"data":[0,0,0,0,0,0,0,0,0,0,0,0,0,0,0,0,0,0,0,0,0,0,0,0,0,0,0,0,0,0,0,0,0,0,0,0,0,0,0,0,0,0,0,0,0,0,0,0,0,0,0,0,0,0,0,0,0,0,-0.9682,-0.9683,0,-0.9753,-0.9754,-0.9755,-0.9805,-0.9805,-0.9805,-0.9806,-0.9878,-0.9879,-0.9881,0,0,0,0,0,0,0,0,0,0,0,0,0,-0.959,-0.9591,-0.9682,-0.9683,-0.9684,-0.9753,-0.9754,-0.9755,-0.9804,-0.9805,-0.9805,-0.9806,-0.9877,-0.9879,-0.9881,0,0,0,0,0,0,0,0,0,0,0,0,0,-0.9642,-0.9591,-0.9682,-0.9717,-0.9721,-0.9753,-0.9754,-0.9755,-0.9804,-0.9805,-0.9806,-0.9806,-0.9877,-0.9879,-0.9881,-0.9884,0,0,-0.9888,-0.9889,0,0,0,0,0,0,0,0,-0.9639,-0.9645,-0.9711,-0.9715,-0.9719,-0.9771,-0.9748,-0.9799,-0.9804,-0.9773,-0.9806,-0.9806,-0.9842,-0.9847,-0.9859,-0.9888,-0.9891,-0.9889,-0.989,-0.9891,-0.9892,0,0,0,0,0,0,0,-0.9635,-0.9643,-0.971,-0.9712,-0.9717,-0.9729,-0.9737,-0.9758,-0.9803,-0.9775,-0.9779,-0.9787,-0.9844,-0.9857,-0.9861,-0.9892,-0.9889,-0.9891,-0.9892,-0.9893,-0.9927,-0.9926,0,0,0,0,0,0,-0.9626,-0.9639,-0.9708,-0.9713,-0.968,-0.973,-0.9739,-0.9753,-0.9803,-0.9811,-0.9786,-0.9789,-0.9852,-0.9858,-0.9864,-0.9871,-0.9891,-0.9893,-0.9895,-0.9927,-0.9927,-0.9926,0,0,0,0,0,0,-0.9624,-0.9632,-0.9705,-0.9677,-0.9687,-0.9731,-0.9747,-0.9755,-0.9767,-0.9811,-0.982,-0.9791,-0.9853,-0.986,-0.9879,-0.9874,-0.9894,-0.9896,-0.9928,-0.9927,-0.9926,-0.9885,0,0,0,0,0,0,-0.9621,-0.9631,-0.9632,-0.9677,-0.9689,-0.9719,-0.9746,-0.9756,-0.9771,-0.9775,-0.9818,-0.9825,-0.9854,-0.9875,-0.9881,-0.9878,-0.9898,-0.9929,-0.9928,-0.9927,-0.9887,-0.9883,-0.9879,0,0,0,0,0,-0.9618,-0.9618,-0.9632,-0.964,-0.9691,-0.9719,-0.9726,-0.9759,-0.9771,-0.9773,-0.9801,-0.9824,-0.9873,-0.9877,-0.9884,-0.9881,-0.9929,-0.9928,-0.9927,-0.9888,-0.9883,-0.9879,0,0,0,0,0,0,-0.9572,-0.9624,-0.9641,-0.9655,-0.9682,-0.9727,-0.9731,-0.9752,-0.9777,-0.9779,-0.9819,-0.9828,-0.9843,-0.9864,-0.9866,-0.9887,-0.9904,-0.9904,-0.9872,-0.9868,-0.9864,-0.9859,-0.99,0,0,0,0,0,-0.9563,-0.9581,-0.9626,-0.9634,-0.9647,-0.9686,-0.9699,-0.9723,-0.9752,-0.9764,-0.9793,-0.9821,-0.9843,-0.9857,-0.9879,-0.989,-0.99,-0.9891,-0.9888,-0.9884,-0.9884,-0.9892,-0.9888,-0.9922,-0.9922,-0.9922,0,0,-0.9546,-0.9576,-0.9585,-0.9625,-0.9649,-0.9667,-0.9695,-0.9713,-0.9726,-0.9766,-0.9786,-0.9808,-0.9842,-0.9857,-0.9865,-0.9875,-0.9877,-0.9883,-0.988,-0.9882,-0.989,-0.9887,-0.9884,-0.9922,-0.9922,-0.9922,0,0,-0.9523,-0.9548,-0.9558,-0.9581,-0.9617,-0.9643,-0.9645,-0.9687,-0.9704,-0.9724,-0.9754,-0.9771,-0.9808,-0.983,-0.9847,-0.9833,-0.9855,-0.9839,-0.9819,-0.9826,-0.9823,-0.9821,-0.9817,-0.9815,-0.9839,-0.9839,-0.9839,0,-0.9497,-0.9525,-0.956,-0.9576,-0.9593,-0.963,-0.964,-0.9661,-0.9702,-0.9713,-0.9723,-0.9771,-0.9796,-0.9816,-0.9813,-0.9825,-0.9829,-0.9835,-0.9821,-0.9819,-0.9818,-0.9814,-0.9812,-0.9836,-0.9837,-0.9837,-0.9837,0,-0.9491,-0.951,-0.9514,-0.9553,-0.957,-0.9583,-0.962,-0.9633,-0.9655,-0.968,-0.97,-0.9731,-0.9761,-0.9768,-0.9789,-0.9792,-0.9797,-0.9813,-0.9832,-0.9812,-0.9809,-0.9808,-0.9833,-0.9834,-0.9835,-0.9835,0,0,-0.9442,-0.95,-0.9501,-0.9519,-0.9561,-0.9576,-0.9591,-0.962,-0.9631,-0.9658,-0.9671,-0.9701,-0.9717,-0.9736,-0.976,-0.9766,-0.9753,-0.9782,-0.9784,-0.9776,-0.9759,-0.9746,-0.9744,-0.9768,-0.9768,-0.9768,-0.9756,0,-0.9426,-0.9455,-0.9487,-0.9504,-0.9522,-0.9557,-0.957,-0.9597,-0.9621,-0.964,-0.9666,-0.9687,-0.9706,-0.9718,-0.9725,-0.9753,-0.975,-0.9755,-0.9781,-0.9782,-0.9772,-0.9742,-0.9729,-0.9716,-0.9755,-0.9755,-0.9755,0,-0.9412,-0.9437,-0.9456,-0.9497,-0.9505,-0.9516,-0.9546,-0.9563,-0.9594,-0.9611,-0.9632,-0.9658,-0.9675,-0.9691,-0.9715,-0.9717,-0.973,-0.9746,-0.9746,-0.975,-0.9767,-0.9746,-0.9713,-0.9711,-0.9753,-0.9753,-0.9753,0,-0.9375,-0.9413,-0.943,-0.9444,-0.9492,-0.9499,-0.9519,-0.9551,-0.9566,-0.9592,-0.9603,-0.963,-0.9645,-0.9665,-0.9698,-0.9706,-0.9719,-0.9737,-0.9733,-0.9733,-0.9735,-0.9734,-0.9704,-0.9742,-0.9742,-0.9742,-0.9742,0,-0.9354,-0.9365,-0.9414,-0.9424,-0.9437,-0.9473,-0.9485,-0.9508,-0.9536,-0.9552,-0.9584,-0.9597,-0.9639,-0.9658,-0.9683,-0.97,-0.9706,-0.9721,-0.9727,-0.9718,-0.9716,-0.9727,-0.9729,-0.9742,-0.9742,-0.9742,-0.9742,0,-0.9315,-0.9349,-0.9369,-0.9412,-0.9423,-0.943,-0.9468,-0.9479,-0.9504,-0.9523,-0.953,-0.957,-0.9594,-0.9628,-0.9662,-0.9679,-0.9692,-0.9702,-0.9681,-0.9685,-0.968,-0.968,-0.9656,-0.9655,-0.9693,-0.9692,-0.9692,0,-0.93,-0.9309,-0.9353,-0.9366,-0.9384,-0.9404,-0.942,-0.9457,-0.9472,-0.9509,-0.9515,-0.9542,-0.9565,-0.9601,-0.9633,-0.9659,-0.9671,-0.966,-0.9675,-0.9665,-0.9671,-0.9671,-0.9672,-0.9657,-0.9656,-0.9656,-0.9656,0,-0.927,-0.9286,-0.9308,-0.9336,-0.9354,-0.9378,-0.9403,-0.9411,-0.9453,-0.9469,-0.9493,-0.9511,-0.9546,-0.9571,-0.9602,-0.9623,-0.9646,-0.9651,-0.9651,-0.9642,-0.963,-0.9637,-0.9672,-0.9651,-0.9652,-0.9652,-0.9652,-0.9652,-0.9243,-0.9253,-0.9285,-0.9309,-0.9331,-0.9354,-0.9367,-0.9394,-0.9415,-0.9446,-0.9466,-0.949,-0.9521,-0.9565,-0.9584,-0.9603,-0.9613,-0.9614,-0.9614,-0.9614,-0.9611,-0.9626,-0.9609,-0.9609,-0.9609,-0.9609,-0.961,0,-0.9216,-0.9238,-0.9259,-0.9293,-0.9312,-0.9332,-0.936,-0.9375,-0.9395,-0.9422,-0.9444,-0.9472,-0.9497,-0.9531,-0.9559,-0.9568,-0.9579,-0.9574,-0.9574,-0.9578,-0.96,-0.9597,-0.9564,-0.9564,-0.9564,-0.9564,-0.9564,-0.9564,-0.9203,-0.9221,-0.924,-0.9269,-0.9292,-0.9315,-0.933,-0.9351,-0.9373,-0.9403,-0.9424,-0.9446,-0.9476,-0.9506,-0.953,-0.9539,-0.9548,-0.954,-0.9552,-0.9572,-0.9577,-0.958,-0.9578,-0.9541,-0.9541,-0.9529,-0.9529,-0.9528]},{"header":{"parameterUnit":"m.s-1","parameterCategory":1,"la1":30.2991,"la2":30.254,"lo1":-89.0895,"lo2":-89.0444,"dy":0.0017,"dx":0.0017,"nx":28,"ny":28,"refTime":"2024-06-02T03:00:00:Z","depth":0,"parameterNumber":3,"parameterNumberName":"V-component_of_WINDS"},"data":[0,0,0,0,0,0,0,0,0,0,0,0,0,0,0,0,0,0,0,0,0,0,0,0,0,0,0,0,0,0,0,0,0,0,0,0,0,0,0,0,0,0,0,0,0,0,0,0,0,0,0,0,0,0,0,0,0,0,3.9054,3.9054,0,3.9065,3.9065,3.9065,3.8993,3.8991,3.8989,3.8987,3.8997,3.8999,3.9001,0,0,0,0,0,0,0,0,0,0,0,0,0,3.8968,3.897,3.9054,3.9054,3.9054,3.9065,3.9065,3.9065,3.8993,3.8991,3.8988,3.8986,3.8996,3.8998,3.9001,0,0,0,0,0,0,0,0,0,0,0,0,0,3.8995,3.8971,3.9054,3.9019,3.9016,3.9065,3.9065,3.9065,3.8994,3.8991,3.8987,3.8985,3.8995,3.8998,3.9001,3.9083,0,0,3.9011,3.9013,0,0,0,0,0,0,0,0,3.8994,3.8998,3.9024,3.9022,3.9019,3.9024,3.9039,3.9071,3.8994,3.9002,3.8987,3.8983,3.9008,3.901,3.9019,3.9084,3.9084,3.9012,3.9014,3.9015,3.9016,0,0,0,0,0,0,0,3.8992,3.8997,3.9058,3.9025,3.9021,3.9003,3.9003,3.9044,3.9022,3.9001,3.8996,3.8998,3.9006,3.9016,3.9019,3.9084,3.9012,3.9014,3.9017,3.9018,3.9216,3.9219,0,0,0,0,0,0,3.8995,3.8996,3.9058,3.9058,3.8998,3.9007,3.9007,3.9026,3.9022,3.9018,3.9001,3.8995,3.9012,3.9015,3.9019,3.9113,3.9015,3.9018,3.902,3.9213,3.9217,3.922,0,0,0,0,0,0,3.8993,3.9001,3.9057,3.9026,3.9032,3.9012,3.9033,3.9027,3.9037,3.9022,3.9017,3.9015,3.901,3.9014,3.9068,3.9113,3.902,3.9023,3.9209,3.9214,3.9218,3.9304,0,0,0,0,0,0,3.8991,3.9001,3.9032,3.9027,3.9034,3.9107,3.9036,3.903,3.9043,3.9036,3.9034,3.9031,3.9008,3.9063,3.9071,3.9116,3.9025,3.9204,3.9211,3.9217,3.9297,3.9311,3.9324,0,0,0,0,0,3.8988,3.9055,3.9034,3.9042,3.9072,3.9109,3.9113,3.9086,3.9047,3.9078,3.9068,3.9031,3.9107,3.9069,3.9077,3.9124,3.9201,3.9209,3.9216,3.9291,3.9309,3.9323,0,0,0,0,0,0,3.9065,3.9054,3.903,3.9098,3.9105,3.9097,3.9135,3.9105,3.9123,3.9115,3.908,3.908,3.9139,3.9137,3.9095,3.9202,3.9147,3.9157,3.9202,3.9218,3.9231,3.923,3.9028,0,0,0,0,0,3.909,3.9122,3.911,3.9171,3.9176,3.9155,3.917,3.9149,3.9155,3.9157,3.9151,3.9158,3.9183,3.9201,3.9223,3.9297,3.9295,3.9333,3.9346,3.9357,3.9365,3.9403,3.942,3.9245,3.9245,3.9244,0,0,3.9142,3.914,3.9161,3.9186,3.9189,3.9222,3.9158,3.9196,3.922,3.9163,3.9213,3.9209,3.9214,3.9278,3.9306,3.9278,3.9414,3.9367,3.9376,3.9378,3.9413,3.9429,3.9444,3.925,3.9249,3.9248,0,0,3.9252,3.9254,3.9305,3.931,3.9315,3.9301,3.9314,3.931,3.9306,3.9356,3.9314,3.9341,3.9386,3.9392,3.94,3.9514,3.948,3.9522,3.9591,3.9629,3.9642,3.9654,3.9694,3.9709,3.9531,3.9531,3.9531,0,3.9315,3.9363,3.9334,3.9375,3.9387,3.9338,3.9389,3.9395,3.9408,3.9417,3.9386,3.9441,3.9441,3.9505,3.9533,3.9542,3.9554,3.9522,3.9643,3.9655,3.9666,3.9703,3.9718,3.9536,3.9536,3.9535,3.9535,0,3.944,3.9474,3.9515,3.9529,3.9546,3.9591,3.9568,3.9589,3.9566,3.9556,3.9607,3.9606,3.9627,3.9641,3.9619,3.9702,3.9685,3.9649,3.9593,3.9688,3.9722,3.9736,3.9543,3.9542,3.954,3.9539,0,0,3.9598,3.9596,3.9611,3.9617,3.9621,3.9646,3.969,3.9711,3.9729,3.974,3.9775,3.9814,3.9781,3.9791,3.977,3.9803,3.9893,3.9763,3.9763,3.9786,3.9983,4.0009,4.0026,3.9871,3.9873,3.9875,3.9982,0,3.9705,3.9779,3.9754,3.9829,3.986,3.9815,3.9852,3.9859,3.985,3.9875,3.9865,3.9893,3.9848,3.9854,3.9885,3.9875,3.9931,3.9867,3.9902,3.9903,3.9901,4.0044,4.0072,4.0173,3.9996,3.9998,4.0,0,3.9839,3.9856,3.9934,3.9933,3.9945,3.9979,3.9997,4.0021,4.0027,4.0018,4.003,4.0002,4.0044,3.9989,4.0046,4.0003,4.0016,4.0013,4.0017,4.0017,3.9956,4.0048,4.0204,4.0219,4.0021,4.0019,4.0018,0,3.9945,3.9988,4.004,4.0046,4.0046,4.0071,4.0072,4.0075,4.0089,4.0105,4.0114,4.0134,4.0145,4.0161,4.0139,4.0101,4.0199,4.0142,4.0192,4.0193,4.0213,4.0212,4.0373,4.0224,4.0224,4.0224,4.0224,0,4.0066,4.0116,4.0087,4.0119,4.0173,4.0145,4.0199,4.0194,4.0198,4.0228,4.019,4.0219,4.0188,4.0214,4.0197,4.0247,4.0252,4.0246,4.024,4.0248,4.0249,4.0255,4.0247,4.0228,4.0227,4.0226,4.0226,0,4.0193,4.0176,4.023,4.0226,4.0226,4.0266,4.0261,4.029,4.028,4.0318,4.0325,4.0308,4.0337,4.0317,4.0345,4.0334,4.0398,4.0384,4.0396,4.0392,4.0442,4.0438,4.0611,4.0632,4.0472,4.0473,4.0475,0,4.0271,4.0308,4.0308,4.0326,4.0329,4.0358,4.0373,4.0347,4.0364,4.0374,4.0401,4.0427,4.0446,4.0494,4.0484,4.0505,4.049,4.055,4.0493,4.05,4.049,4.0487,4.049,4.056,4.0562,4.0564,4.0565,0,4.0411,4.0401,4.0424,4.0445,4.0464,4.0478,4.049,4.0506,4.048,4.0501,4.053,4.0545,4.0574,4.06,4.0618,4.0618,4.0587,4.0583,4.0596,4.0604,4.0609,4.0606,4.0426,4.0579,4.0578,4.0577,4.0576,4.0575,4.0515,4.0545,4.055,4.0577,4.0583,4.0595,4.0622,4.0615,4.0639,4.0661,4.0645,4.0679,4.0684,4.0705,4.0709,4.0736,4.0711,4.073,4.0734,4.0739,4.0745,4.0606,4.0739,4.0739,4.0738,4.0738,4.0738,0,4.0652,4.0653,4.0678,4.0696,4.0717,4.0687,4.0699,4.0718,4.0749,4.0757,4.0777,4.081,4.0835,4.0827,4.0849,4.0872,4.0858,4.0878,4.0876,4.0876,4.0766,4.0753,4.0889,4.0889,4.0889,4.0889,4.0889,4.0889,4.0725,4.0775,4.0766,4.0819,4.0819,4.0853,4.0862,4.0873,4.0879,4.0918,4.0939,4.0934,4.0935,4.0957,4.0978,4.0975,4.0985,4.101,4.1002,4.0899,4.0884,4.087,4.0857,4.1012,4.1013,4.1109,4.111,4.1111]}]]